GW1732 Weather Reports


time (UTC)temp
F
wind
direction
speed
knots
gust
knots
rain 1hr
in
rain 24hr
in
rain mn
in
humidity
%
barometer
mb
20260507202651 83 23 0.0 0.0 0.00 0.00 0.00 61 988.4
20260507202141 83 23 0.0 0.0 0.00 0.00 0.00 62 988.2
20260507201631 83 23 0.0 0.0 0.00 0.00 0.00 62 988.5
20260507201121 83 0 0.0 0.0 0.00 0.00 0.00 62 988.4
20260507200611 83 315 0.0 0.0 0.00 0.00 0.00 63 988.6
20260507200109 83 0 0.0 0.0 0.00 0.00 0.00 62 988.7
20260507195041 83 315 0.0 0.0 0.00 0.00 0.00 60 988.9
20260507194530 83 315 0.0 0.0 0.00 0.00 0.00 60 988.7
20260507194019 83 0 0.0 0.0 0.00 0.00 0.00 61 988.7
20260507193509 83 338 0.0 0.0 0.00 0.00 0.00 61 988.7
20260507192959 83 293 0.0 0.0 0.00 0.00 0.00 60 988.4
20260507192449 83 338 0.0 0.0 0.00 0.00 0.00 61 988.5
20260507191939 83 293 0.0 0.0 0.00 0.00 0.00 61 988.6
20260507191429 83 338 0.0 0.0 0.00 0.00 0.00 60 988.5
20260507190919 83 315 0.0 0.0 0.00 0.00 0.00 60 988.4
20260507190409 84 338 0.0 0.0 0.00 0.00 0.00 59 988.1
20260507185859 84 338 0.0 0.0 0.00 0.00 0.00 59 988.1
20260507185349 84 45 0.0 0.0 0.00 0.00 0.00 59 987.7
20260507184839 84 293 0.0 0.0 0.00 0.00 0.00 59 988.1
20260507184327 84 315 0.0 0.0 0.00 0.00 0.00 60 987.9
20260507182049 84 315 0.0 0.0 0.00 0.00 0.00 59 988.2
20260507181540 84 23 0.0 0.0 0.00 0.00 0.00 59 987.9
20260507181029 84 0 0.0 0.0 0.00 0.00 0.00 59 987.9
20260507180524 84 338 0.0 0.0 0.00 0.00 0.00 58 987.8
20260507180011 84 0 0.0 0.0 0.00 0.00 0.00 59 987.6
20260507174952 84 23 0.0 0.0 0.00 0.00 0.00 59 987.8
20260507174442 84 23 0.0 0.0 0.00 0.00 0.00 59 988.1
20260507173931 84 338 0.0 0.0 0.00 0.00 0.00 57 988.1
20260507173421 84 338 0.0 0.0 0.00 0.00 0.00 58 988.1
20260507172909 84 338 0.0 0.0 0.00 0.00 0.00 57 987.9
20260507165450 83 23 0.0 0.0 0.00 0.00 0.00 59 988.1
20260507164940 83 0 0.0 0.0 0.00 0.00 0.00 60 988.5
20260507164429 84 23 0.0 0.0 0.00 0.00 0.00 60 988.6
20260507163409 84 23 0.0 0.0 0.00 0.00 0.00 59 989.0
20260507162900 84 23 0.0 0.0 0.00 0.00 0.00 58 989.0
20260507162349 85 338 0.0 0.0 0.00 0.00 0.00 58 989.3
20260507161840 84 0 0.0 0.0 0.00 0.00 0.00 60 989.2
20260507161329 83 338 0.0 0.0 0.00 0.00 0.00 62 989.4
20260507160819 83 315 0.0 0.0 0.00 0.00 0.00 62 989.8
20260507155249 83 23 0.0 0.0 0.00 0.00 0.00 60 990.3
20260507154738 83 0 0.0 0.0 0.00 0.00 0.00 59 990.3
20260507154230 84 0 0.0 0.0 0.00 0.00 0.00 59 990.7
20260507153718 85 0 0.0 0.0 0.00 0.00 0.00 57 990.7
20260507153208 85 23 0.0 0.0 0.00 0.00 0.00 59 990.9
20260507152148 85 23 0.0 0.0 0.00 0.00 0.00 60 991.4
20260507151638 84 23 0.0 0.0 0.00 0.00 0.00 62 991.5
20260507151129 82 0 0.0 0.0 0.00 0.00 0.00 64 991.5
20260507150618 82 338 0.0 0.0 0.00 0.00 0.00 65 991.5
20260507150109 82 315 0.0 0.0 0.00 0.00 0.00 63 991.7
20260507144537 81 23 0.0 0.0 0.00 0.00 0.00 66 991.9
20260507144028 81 23 0.0 0.0 0.00 0.00 0.00 67 992.0
20260507143517 80 23 0.0 0.0 0.00 0.00 0.00 68 992.2
20260507143013 80 0 0.0 0.0 0.00 0.00 0.00 70 992.3
20260507142457 79 338 0.0 0.0 0.00 0.00 0.00 70 992.7
20260507141947 80 0 0.0 0.0 0.00 0.00 0.00 70 992.9
20260507141436 80 45 0.0 0.0 0.00 0.00 0.00 69 993.2
20260507140927 80 0 0.0 0.0 0.00 0.00 0.00 69 993.2
20260507140426 80 23 0.0 0.0 0.00 0.00 0.00 69 993.5
20260507135907 80 23 0.0 0.0 0.00 0.00 0.00 70 993.8
20260507135357 80 338 0.0 0.0 0.00 0.00 0.00 69 994.0
20260507134846 80 0 0.0 0.0 0.00 0.00 0.00 70 993.8
20260507133826 79 0 0.0 0.0 0.00 0.00 0.00 70 994.3
20260507133315 79 0 0.0 0.0 0.00 0.00 0.00 70 994.3
20260507132805 79 338 0.0 0.0 0.00 0.00 0.00 71 994.2
20260507132256 79 0 0.0 0.0 0.00 0.00 0.00 71 994.2
20260507131235 78 0 0.0 0.0 0.00 0.00 0.00 72 994.2
20260507130725 78 338 0.0 0.0 0.00 0.00 0.00 71 994.3
20260507130215 78 338 0.0 0.0 0.00 0.00 0.00 72 994.4
20260507125705 78 23 0.0 0.0 0.00 0.00 0.00 74 994.2
20260507124135 77 0 0.0 0.0 0.00 0.00 0.00 75 994.6
20260507123114 76 0 0.0 0.0 0.00 0.00 0.00 76 994.6
20260507122604 76 23 0.0 0.0 0.00 0.00 0.00 77 995.0
20260507121543 76 0 0.0 0.0 0.00 0.00 0.00 78 994.8
20260507120524 76 0 0.0 0.0 0.00 0.00 0.00 78 995.1
20260507120014 76 23 0.0 0.0 0.00 0.00 0.00 77 995.0
20260507115503 76 23 0.0 0.0 0.00 0.00 0.00 77 995.0
20260507114444 76 0 0.0 0.0 0.00 0.00 0.00 76 994.9
20260507113423 76 23 0.0 0.0 0.00 0.00 0.00 77 994.7
20260507112913 76 0 0.0 0.0 0.00 0.00 0.00 77 994.6
20260507112403 76 23 0.0 0.0 0.00 0.00 0.00 76 994.5
20260507111853 76 0 0.0 0.0 0.00 0.00 0.00 76 994.6
20260507111342 76 0 0.0 0.0 0.00 0.00 0.00 77 994.7
20260507110833 76 338 0.0 0.0 0.00 0.00 0.00 76 994.6
20260507110325 76 0 0.0 0.0 0.00 0.00 0.00 77 994.5
20260507105812 76 0 0.0 0.0 0.00 0.00 0.00 77 994.7
20260507105310 76 0 0.0 0.0 0.00 0.00 0.00 77 994.6
20260507104752 76 338 0.0 0.0 0.00 0.00 0.00 76 994.5
20260507104242 76 0 0.0 0.0 0.00 0.00 0.00 76 994.7
20260507103222 76 0 0.0 0.0 0.00 0.00 0.00 76 994.4
20260507102711 76 0 0.0 0.0 0.00 0.00 0.00 76 994.4
20260507102202 76 338 0.0 0.0 0.00 0.00 0.00 75 994.4
20260507101651 76 23 0.0 0.0 0.00 0.00 0.00 75 994.4
20260507101141 76 23 0.0 0.0 0.00 0.00 0.00 75 994.3
20260507100631 76 0 0.0 0.0 0.00 0.00 0.00 75 994.2
20260507095611 76 23 0.0 0.0 0.00 0.00 0.00 75 994.5
20260507095101 76 0 0.0 0.0 0.00 0.00 0.00 75 994.7
20260507094547 77 338 0.0 0.0 0.00 0.00 0.00 75 994.5
20260507093531 76 0 0.0 0.0 0.00 0.00 0.00 75 994.7
20260507093021 77 0 0.0 0.0 0.00 0.00 0.00 74 994.6
20260507092510 77 0 0.0 0.0 0.00 0.00 0.00 75 994.4
20260507092001 77 338 0.0 0.0 0.00 0.00 0.00 75 994.7
20260507091450 76 23 0.0 0.0 0.00 0.00 0.00 75 994.7
20260507090940 77 338 0.0 0.0 0.00 0.00 0.00 75 994.5
20260507090429 77 0 0.0 0.0 0.00 0.00 0.00 75 994.6
20260507085920 77 0 0.0 0.0 0.00 0.00 0.00 75 994.6
20260507084900 77 338 0.0 0.0 0.00 0.00 0.00 75 994.6
20260507084349 77 338 0.0 0.0 0.00 0.00 0.00 75 994.7
20260507082309 77 23 0.0 0.0 0.00 0.00 0.00 74 994.7
20260507081759 77 23 0.0 0.0 0.00 0.00 0.00 74 994.7
20260507081249 78 0 0.0 0.0 0.00 0.00 0.00 73 994.5
20260507080738 78 45 0.0 0.0 0.00 0.00 0.00 73 994.3
20260507080228 78 0 0.0 0.0 0.00 0.00 0.00 72 994.4
20260507075718 78 0 0.0 0.0 0.00 0.00 0.00 73 994.5
20260507075208 78 23 0.0 0.0 0.00 0.00 0.00 73 994.4
20260507074658 78 338 0.0 0.0 0.00 0.00 0.00 73 994.4
20260507073638 79 0 0.0 0.0 0.00 0.00 0.00 72 994.5
20260507073128 78 0 0.0 0.0 0.00 0.00 0.00 72 994.7
20260507072617 79 0 0.0 0.0 0.00 0.00 0.00 72 994.7
20260507072107 78 23 0.0 0.0 0.00 0.00 0.00 72 994.9
20260507071557 79 0 0.0 0.0 0.00 0.00 0.00 71 994.7
20260507071047 79 0 0.0 0.0 0.00 0.00 0.00 71 995.0
20260507070538 79 0 0.0 0.0 0.00 0.00 0.00 70 994.9
20260507070027 79 0 0.0 0.0 0.00 0.00 0.00 71 994.9
20260507065517 80 0 0.0 0.0 0.00 0.00 0.00 70 994.9
20260507065006 80 338 0.0 0.0 0.00 0.00 0.00 69 995.1
20260507064456 80 0 0.0 0.0 0.00 0.00 0.00 68 995.1
20260507063947 80 338 0.0 0.0 0.00 0.00 0.00 69 995.2
20260507063437 80 0 0.0 0.0 0.00 0.00 0.00 68 995.0
20260507062926 80 23 0.0 0.0 0.00 0.00 0.00 69 995.1
20260507062416 80 45 0.0 0.0 0.00 0.00 0.00 68 995.1
20260507061907 80 0 0.0 0.0 0.00 0.00 0.00 68 995.2
20260507061412 80 0 0.0 0.0 0.00 0.00 0.00 68 995.3
20260507060846 80 45 0.0 0.0 0.00 0.00 0.00 67 995.4
20260507060336 80 45 0.0 0.0 0.00 0.00 0.00 68 995.3
20260507055825 80 338 0.0 0.0 0.00 0.00 0.00 68 995.4
20260507055315 80 23 0.0 0.0 0.00 0.00 0.00 67 995.6
20260507054805 80 0 0.0 0.0 0.00 0.00 0.00 68 995.6
20260507054255 80 0 0.0 0.0 0.00 0.00 0.00 69 995.7
20260507053745 80 45 0.0 0.0 0.00 0.00 0.00 69 995.8
20260507052725 80 23 0.0 0.0 0.00 0.00 0.00 70 995.7
20260507052215 80 45 0.0 0.0 0.00 0.00 0.00 71 995.9
20260507051704 80 23 0.0 0.0 0.00 0.00 0.00 71 995.7
20260507051155 79 0 0.0 0.0 0.00 0.00 0.00 72 996.0
20260507050644 80 23 0.0 0.0 0.00 0.00 0.00 73 996.1
20260507050134 80 45 0.0 0.0 0.00 0.00 0.00 73 996.3
20260507045624 79 23 0.0 0.0 0.00 0.00 0.00 73 996.4
20260507045114 79 0 0.0 0.0 0.00 0.00 0.00 74 996.5
20260507044054 79 0 0.0 0.0 0.00 0.00 0.00 73 996.3
20260507043544 79 23 0.0 0.0 0.00 0.00 0.00 74 996.6
20260507043043 79 0 0.0 0.0 0.00 0.00 0.00 73 996.4
20260507042523 79 0 0.0 0.0 0.00 0.00 0.00 74 996.8
20260507042013 80 338 0.0 0.0 0.00 0.00 0.00 73 996.8
20260507041503 80 0 0.0 0.0 0.00 0.00 0.00 73 996.8
20260507040953 80 23 0.0 0.0 0.00 0.00 0.00 73 997.1
20260507035933 80 23 0.0 0.0 0.00 0.00 0.00 74 997.0
20260507035422 80 23 0.0 0.0 0.00 0.00 0.00 73 996.9
20260507034912 80 23 0.0 0.0 0.00 0.00 0.00 73 996.9
20260507034404 80 0 0.0 0.0 0.00 0.00 0.00 73 997.0
20260507033342 80 338 0.0 0.0 0.00 0.00 0.00 73 996.7
20260507032832 80 23 0.0 0.0 0.00 0.00 0.00 73 996.8
20260507031812 80 0 0.0 0.0 0.00 0.00 0.00 73 996.8
20260507031302 80 0 0.0 0.0 0.00 0.00 0.00 73 996.8
20260507030242 80 23 0.0 0.0 0.00 0.00 0.00 73 997.0
20260507025731 80 0 0.0 0.0 0.00 0.00 0.00 73 996.9
20260507025221 80 0 0.0 0.0 0.00 0.00 0.00 74 997.0
20260507024202 79 23 0.0 0.0 0.00 0.00 0.00 75 997.1
20260507022630 78 23 0.0 0.0 0.00 0.00 0.00 76 997.4
20260507022120 78 0 0.0 0.0 0.00 0.00 0.00 76 997.4
20260507021610 79 23 0.0 0.0 0.00 0.00 0.00 77 997.8
20260507020040 79 23 0.0 0.0 0.00 0.00 0.00 77 997.7
20260507015020 79 45 0.0 0.0 0.00 0.00 0.00 76 998.1
20260507014510 79 23 0.0 0.0 0.00 0.00 0.00 76 998.0
20260507013450 79 23 0.0 0.0 0.00 0.00 0.00 77 998.3
20260507012941 79 23 0.0 0.0 0.00 0.00 0.00 78 998.2
20260507012429 79 23 0.0 0.0 0.00 0.00 0.00 77 998.2
20260507011919 79 23 0.0 0.0 0.00 0.00 0.00 77 998.4
20260507011410 79 23 0.0 0.0 0.00 0.00 0.00 77 998.4
20260507010859 79 23 0.0 0.0 0.00 0.00 0.00 77 998.3
20260507010350 79 23 0.0 0.0 0.00 0.00 0.00 77 998.3
20260507005839 79 45 0.0 0.0 0.00 0.00 0.00 77 998.4
20260507005329 79 23 0.0 0.0 0.00 0.00 0.00 79 998.5
20260507004818 78 45 0.0 0.0 0.00 0.00 0.00 80 998.6
20260507004308 78 45 0.0 0.0 0.00 0.00 0.00 81 998.6
20260507003758 77 23 0.0 0.0 0.00 0.00 0.00 82 998.5
20260507003249 77 45 0.0 0.0 0.00 0.00 0.00 82 998.4
20260507002738 77 45 0.0 0.0 0.00 0.00 0.00 83 998.5
20260507002229 77 68 0.0 0.0 0.00 0.00 0.00 83 998.5
20260507001207 77 45 0.0 0.0 0.00 0.00 0.00 83 998.6
20260507000657 77 45 0.0 0.0 0.00 0.00 0.00 83 998.5
20260507000148 77 68 0.0 0.0 0.00 0.00 0.00 84 998.6
20260506235637 77 23 0.0 0.0 0.00 0.00 0.00 83 998.6
20260506234617 77 45 0.0 0.0 0.00 0.00 0.00 83 998.6
20260506234107 77 45 0.0 0.0 0.00 0.00 0.00 83 998.7
20260506233047 77 45 0.0 0.0 0.00 0.00 0.00 83 998.6
20260506232537 77 23 0.0 0.0 0.00 0.00 0.00 83 998.6
20260506231009 77 68 0.0 0.0 0.00 0.00 0.00 83 998.7
20260506230456 77 68 0.0 0.0 0.00 0.00 0.00 83 998.8
20260506225436 77 68 0.0 0.0 0.00 0.00 0.00 82 998.8
20260506224927 78 68 0.0 0.0 0.00 0.00 0.00 82 998.8
20260506223906 78 45 0.0 0.0 0.00 0.00 0.00 81 998.8
20260506223356 78 23 0.0 0.0 0.00 0.00 0.00 81 998.7
20260506222845 78 45 0.0 0.0 0.00 0.00 0.00 81 998.8
20260506222335 78 45 0.0 0.0 0.00 0.00 0.00 81 998.7
20260506221825 78 45 0.0 0.0 0.00 0.00 0.00 81 998.7
20260506220805 80 23 0.0 0.0 0.00 0.00 0.00 78 998.6
20260506215746 80 23 0.0 0.0 0.00 0.00 0.00 77 998.8
20260506215235 80 23 0.0 0.0 0.00 0.00 0.00 76 998.7
20260506213704 81 23 0.0 0.0 0.00 0.00 0.00 75 998.8
20260506213155 81 0 0.0 0.0 0.00 0.00 0.00 75 998.7
20260506212644 81 0 0.0 0.0 0.00 0.00 0.00 75 998.8
20260506212135 82 23 0.0 0.0 0.00 0.00 0.00 74 998.9
20260506211624 82 23 0.0 0.0 0.00 0.00 0.00 74 998.7
20260506211115 82 23 0.0 0.0 0.00 0.00 0.00 74 998.7
20260506210603 82 23 0.0 0.0 0.00 0.00 0.00 73 999.0
20260506210054 82 45 0.0 0.0 0.00 0.00 0.00 74 999.0
20260506204523 83 338 0.0 0.0 0.00 0.00 0.00 72 999.0
20260506204014 83 23 0.0 0.0 0.00 0.00 0.00 72 999.1
20260506203503 83 23 0.0 0.0 0.00 0.00 0.00 74 999.2
20260506202953 83 23 0.0 0.0 0.00 0.00 0.00 73 999.0